Find Starlink 5908

NORAD ID: 55951 Int'l Des: 2023-037 Owner: SPXS Country: US Constellation: starlink operational
LEOCIRCULAR

当前视图

正在加载3D地球...

关于 Starlink 5908

正在加载描述...

即将过境

Passes for default location (London). Set your location on the main map for personalized predictions.

高度历史

Loading altitude history...

两行轨道根数

1 55951U 23037AP 26151.19786016 .00000476 00000-0 47720-4 0 9994
2 55951 70.0005 76.2441 0002931 267.1136 92.9688 14.98329946176342
Epoch: May 31, 2026 • Age: 9 hours

当前状态

高度 590.2 km
速度 7.56 km/s
星下点 -52.46°S, 53.53°W
发射日期 Mar 17, 2023
运行时间 3.2 years
类型 internet

技术详情

分类 Payload
质量 305.00 kg
干质量 290.00 kg
总质量 305.00 kg
长度 0.20 m
直径 2.80 m
跨度 9.00 m
形状 Box + pan
制造商 SPXS
平台类型 Starlink
阶段状态 In Orbit
所有者/国家 SPXS/US

Most Searched